Hourly Weather Homichicy

Today, 12 April, Monday

Time Temperature Precipitation Wind Pressure Humidity
00:00 +8°C° 0 mm 5 mps 753 mmHg 59%
01:00 +8°C° 0 mm 5 mps 753 mmHg 58%
02:00 +8°C° 0 mm 5 mps 753 mmHg 58%
03:00 +7°C° 0 mm 5 mps 753 mmHg 57%
04:00 +7°C° 0 mm 5 mps 752 mmHg 57%
05:00 +6°C° 0 mm 5 mps 752 mmHg 57%
06:00 +7°C° 0 mm 5 mps 752 mmHg 56%
07:00 +8°C° 0 mm 5 mps 752 mmHg 56%
08:00 +8°C° 0 mm 6 mps 752 mmHg 55%
09:00 +10°C° 0 mm 6 mps 752 mmHg 52%
10:00 +11°C° 0 mm 6 mps 752 mmHg 49%
11:00 +14°C° 0 mm 6 mps 751 mmHg 45%
12:00 +14°C° 0 mm 6 mps 751 mmHg 47%
13:00 +15°C° 0 mm 5 mps 751 mmHg 48%
14:00 +15°C° 0 mm 5 mps 751 mmHg 49%
15:00 +15°C° 0 mm 4 mps 750 mmHg 51%
16:00 +17°C° 0 mm 4 mps 750 mmHg 53%
17:00 +17°C° 0 mm 3 mps 750 mmHg 55%
18:00 +16°C° 0 mm 3 mps 750 mmHg 58%
19:00 +14°C° 0 mm 3 mps 750 mmHg 61%
20:00 +13°C° 0 mm 3 mps 750 mmHg 64%
21:00 +13°C° 0 mm 3 mps 750 mmHg 66%
22:00 +12°C° 0 mm 3 mps 750 mmHg 68%
23:00 +12°C° 0 mm 3 mps 750 mmHg 69%

Tomorrow, 13 April, Tuesday

Time Temperature Precipitation Wind Pressure Humidity
00:00 +11°C° 0 mm 3 mps 750 mmHg 74%
01:00 +12°C° 0 mm 2 mps 750 mmHg 78%
02:00 +10°C° 0 mm 2 mps 750 mmHg 82%
03:00 +10°C° 0 mm 3 mps 750 mmHg 86%
04:00 +9°C° 0 mm 3 mps 750 mmHg 89%
05:00 +7°C° 0 mm 4 mps 751 mmHg 93%
06:00 +7°C° 0 mm 4 mps 751 mmHg 90%
07:00 +7°C° 0 mm 4 mps 751 mmHg 88%
08:00 +7°C° 0 mm 4 mps 751 mmHg 86%
09:00 +7°C° 0 mm 4 mps 752 mmHg 84%
10:00 +7°C° 0 mm 4 mps 752 mmHg 82%
11:00 +7°C° 0 mm 5 mps 752 mmHg 81%
12:00 +7°C° 0 mm 5 mps 751 mmHg 81%
13:00 +7°C° 0 mm 5 mps 751 mmHg 81%
14:00 +7°C° 0 mm 5 mps 751 mmHg 81%
15:00 +7°C° 0.1 mm 5 mps 751 mmHg 83%
16:00 +6°C° 0.1 mm 5 mps 751 mmHg 85%
17:00 +6°C° 0.1 mm 5 mps 750 mmHg 87%
18:00 +5°C° 0.3 mm 5 mps 750 mmHg 88%
19:00 +5°C° 0.3 mm 5 mps 750 mmHg 89%
20:00 +4°C° 0.3 mm 6 mps 750 mmHg 90%
21:00 +3°C° 0.1 mm 6 mps 750 mmHg 90%
22:00 +3°C° 0.1 mm 5 mps 750 mmHg 90%
23:00 +3°C° 0.1 mm 5 mps 750 mmHg 90%

Day after tomorrow, 14 April, Wednesday

Time Temperature Precipitation Wind Pressure Humidity
00:00 +3°C° 0 mm 5 mps 750 mmHg 90%
01:00 +2°C° 0 mm 6 mps 749 mmHg 90%
02:00 +2°C° 0 mm 6 mps 749 mmHg 90%
03:00 +2°C° 0 mm 6 mps 749 mmHg 91%
04:00 +1°C° 0 mm 6 mps 749 mmHg 92%
05:00 +1°C° 0 mm 6 mps 749 mmHg 93%
06:00 +1°C° 0.1 mm 6 mps 749 mmHg 93%
07:00 +1°C° 0.1 mm 6 mps 749 mmHg 94%
08:00 +1°C° 0.1 mm 6 mps 749 mmHg 94%
09:00 +1°C° 0.3 mm 6 mps 749 mmHg 95%
10:00 -1°C° 0.3 mm 6 mps 749 mmHg 95%
11:00 -1°C° 0.3 mm 6 mps 749 mmHg 95%
12:00 -1°C° 0.5 mm 6 mps 749 mmHg 95%
13:00 -1°C° 0.5 mm 6 mps 749 mmHg 95%
14:00 0°C° 0.5 mm 5 mps 749 mmHg 96%
15:00 0°C° 0.6 mm 5 mps 749 mmHg 96%
16:00 0°C° 0.6 mm 5 mps 749 mmHg 96%
17:00 0°C° 0.6 mm 5 mps 749 mmHg 96%
18:00 0°C° 0.7 mm 5 mps 749 mmHg 97%
19:00 0°C° 0.7 mm 5 mps 749 mmHg 97%
20:00 0°C° 0.7 mm 4 mps 749 mmHg 97%
21:00 0°C° 0.6 mm 4 mps 749 mmHg 97%
22:00 0°C° 0.6 mm 4 mps 749 mmHg 97%
23:00 +1°C° 0.6 mm 3 mps 748 mmHg 97%

15 April, Thursday

Time Temperature Precipitation Wind Pressure Humidity
00:00 +1°C° 0.3 mm 3 mps 748 mmHg 97%
01:00 +1°C° 0.3 mm 3 mps 748 mmHg 98%
02:00 +1°C° 0.3 mm 3 mps 748 mmHg 98%
03:00 +2°C° 0.2 mm 2 mps 748 mmHg 98%
04:00 +2°C° 0.2 mm 2 mps 748 mmHg 98%
05:00 +2°C° 0.2 mm 2 mps 748 mmHg 98%
06:00 +2°C° 0.1 mm 2 mps 748 mmHg 98%
07:00 +3°C° 0.1 mm 2 mps 748 mmHg 98%
08:00 +4°C° 0.1 mm 1 mps 748 mmHg 98%
09:00 +4°C° 0 mm 1 mps 748 mmHg 96%
10:00 +5°C° 0 mm 1 mps 748 mmHg 95%
11:00 +5°C° 0 mm 1 mps 748 mmHg 93%
12:00 +6°C° 0 mm 1 mps 749 mmHg 91%
13:00 +6°C° 0 mm 1 mps 749 mmHg 89%
14:00 +7°C° 0 mm 1 mps 749 mmHg 87%
15:00 +6°C° 0 mm 2 mps 749 mmHg 85%
16:00 +6°C° 0 mm 2 mps 748 mmHg 84%
17:00 +6°C° 0 mm 2 mps 748 mmHg 82%
18:00 +6°C° 0 mm 2 mps 749 mmHg 85%
19:00 +5°C° 0 mm 2 mps 749 mmHg 88%
20:00 +5°C° 0 mm 2 mps 749 mmHg 91%
21:00 +5°C° 0.1 mm 2 mps 749 mmHg 91%
22:00 +4°C° 0.1 mm 3 mps 748 mmHg 92%
23:00 +4°C° 0.1 mm 3 mps 748 mmHg 93%

16 April, Friday

Time Temperature Precipitation Wind Pressure Humidity
00:00 +4°C° 0 mm 3 mps 748 mmHg 94%
01:00 +4°C° 0 mm 3 mps 748 mmHg 94%
02:00 +4°C° 0 mm 3 mps 748 mmHg 95%
03:00 +4°C° 0.1 mm 3 mps 748 mmHg 95%
04:00 +4°C° 0.1 mm 4 mps 747 mmHg 96%
05:00 +4°C° 0.1 mm 4 mps 747 mmHg 96%
06:00 +4°C° 0.9 mm 4 mps 747 mmHg 96%
07:00 +5°C° 0.9 mm 4 mps 747 mmHg 96%
08:00 +5°C° 0.9 mm 4 mps 747 mmHg 95%
09:00 +6°C° 0.1 mm 4 mps 747 mmHg 92%
10:00 +7°C° 0.1 mm 4 mps 747 mmHg 89%
11:00 +8°C° 0.1 mm 5 mps 748 mmHg 85%
12:00 +9°C° 0 mm 5 mps 748 mmHg 82%
13:00 +10°C° 0 mm 5 mps 747 mmHg 79%
14:00 +12°C° 0 mm 5 mps 747 mmHg 76%
15:00 +12°C° 0 mm 5 mps 747 mmHg 77%
16:00 +12°C° 0 mm 5 mps 747 mmHg 78%
17:00 +10°C° 0 mm 5 mps 747 mmHg 79%
18:00 +10°C° 1.2 mm 6 mps 747 mmHg 84%
19:00 +9°C° 1.2 mm 6 mps 747 mmHg 89%
20:00 +9°C° 1.2 mm 6 mps 747 mmHg 94%
21:00 +9°C° 0.3 mm 6 mps 748 mmHg 93%
22:00 +9°C° 0.3 mm 5 mps 748 mmHg 93%
23:00 +9°C° 0.3 mm 5 mps 748 mmHg 93%

17 April, Saturday

Time Temperature Precipitation Wind Pressure Humidity
00:00 +9°C° 0 mm 5 mps 748 mmHg 93%
01:00 +9°C° 0 mm 5 mps 749 mmHg 93%
02:00 +9°C° 0 mm 5 mps 749 mmHg 93%
03:00 +9°C° 0.8 mm 5 mps 749 mmHg 93%
04:00 +9°C° 0.8 mm 5 mps 749 mmHg 93%
05:00 +9°C° 0.8 mm 5 mps 749 mmHg 93%
06:00 +9°C° 0 mm 5 mps 750 mmHg 92%
07:00 +9°C° 0 mm 5 mps 750 mmHg 91%
08:00 +9°C° 0 mm 5 mps 751 mmHg 89%
09:00 +9°C° 0.1 mm 5 mps 751 mmHg 90%
10:00 +9°C° 0.1 mm 5 mps 752 mmHg 90%
11:00 +9°C° 0.1 mm 5 mps 752 mmHg 90%
12:00 +9°C° 0 mm 5 mps 752 mmHg 87%
13:00 +10°C° 0 mm 5 mps 753 mmHg 84%
14:00 +12°C° 0 mm 5 mps 753 mmHg 80%
15:00 +10°C° 0.3 mm 5 mps 753 mmHg 83%
16:00 +9°C° 0.3 mm 6 mps 753 mmHg 86%
17:00 +8°C° 0.3 mm 6 mps 754 mmHg 89%
18:00 +8°C° 0 mm 6 mps 754 mmHg 89%
19:00 +8°C° 0 mm 6 mps 754 mmHg 89%
20:00 +8°C° 0 mm 6 mps 754 mmHg 90%
21:00 +8°C° 0 mm 5 mps 755 mmHg 90%
22:00 +7°C° 0 mm 5 mps 755 mmHg 90%
23:00 +7°C° 0 mm 5 mps 755 mmHg 91%
Show more